Location: Bastrop State Park
(30.1090°N, 97.2819°W)
Time: 07:30:01
(UTC-05:00)

ISS - Visible Passes

Search period start: 30 May 2015 00:00
Search period end: 09 June 2015 00:00
Orbit: 399 x 404 km, 51.6° (Epoch: 30 May)

Date Brightness Start Highest point End Pass type
(mag) Time Alt. Az. Time Alt. Az. Time Alt. Az.
30 May 0.3 05:13:15 10° NNE 05:14:14 11° NNE 05:15:18 10° NE visible
30 May -3.5 21:46:17 10° SSW 21:49:27 61° SE 21:52:40 10° NE visible
30 May 0.2 23:25:08 10° NW 23:26:11 11° NNW 23:27:09 10° NNW visible
31 May -2.3 05:54:32 10° NNW 05:57:43 51° NE 06:00:54 10° ESE visible
31 May -2.3 20:53:38 10° S 20:56:18 24° SE 20:59:01 10° ENE visible
31 May -0.5 22:30:11 10° W 22:32:42 20° NW 22:35:09 10° NNE visible
01 Jun -0.7 05:01:41 10° NNW 05:04:22 23° NE 05:07:05 10° E visible
01 Jun -2.0 21:36:13 10° WSW 21:39:18 41° NW 21:42:23 10° NNE visible
02 Jun 0.2 04:09:22 10° N 04:10:53 13° NE 04:12:29 10° ENE visible
02 Jun -3.2 05:44:22 10° NW 05:47:32 49° SW 05:50:40 10° SSE visible
03 Jun -2.9 04:51:03 10° NW 04:54:16 64° NE 04:57:30 10° SE visible
03 Jun -0.1 21:26:59 10° W 21:29:16 17° NW 21:31:30 10° N visible
04 Jun -0.8 04:02:31 19° E 04:02:31 19° E 04:03:47 10° ESE visible
04 Jun -1.8 05:35:58 14° W 05:37:11 17° SW 05:39:20 10° S visible
